| DS18B20 | SHTC3 | ||||||
|---|---|---|---|---|---|---|---|
| ID | Date d/m/Y & Time | data1 สูง | data2 ต่ำ | data3 นอก | temp pcb | hum pcb | Time |
| 8984 | 05/04/2026 08:58:26 | 27.8  | 27.2  | 30.3  | 27.4  | 69.0  | 08:58 |
| 8983 | 05/04/2026 08:53:45 | 27.6  | 27.1  | 30.2  | 27.2  | 69.0  | 08:53 |
| 8982 | 05/04/2026 08:49:03 | 27.5  | 27.0  | 30.0  | 27.1  | 69.3  | 08:49 |
| 8981 | 05/04/2026 08:44:21 | 27.4  | 26.9  | 29.8  | 27.1  | 69.5  | 08:44 |
| 8980 | 05/04/2026 08:39:37 | 27.2  | 26.9  | 29.3  | 27.0  | 69.6  | 08:39 |
| 8979 | 05/04/2026 08:34:55 | 27.2  | 26.8  | 29.3  | 26.8  | 69.7  | 08:34 |
| 8978 | 05/04/2026 08:30:14 | 27.1  | 26.8  | 29.0  | 26.7  | 69.9  | 08:30 |
| 8977 | 05/04/2026 08:25:32 | 26.9  | 26.7  | 29.0  | 26.7  | 69.9  | 08:25 |
| 8976 | 05/04/2026 08:20:50 | 26.9  | 26.6  | 28.2  | 26.6  | 70.0  | 08:20 |
| 8975 | 05/04/2026 08:16:09 | 26.8  | 26.6  | 28.0  | 26.7  | 70.1  | 08:16 |
| 8974 | 05/04/2026 08:11:27 | 26.6  | 26.5  | 27.9  | 26.4  | 70.0  | 08:11 |
| 8973 | 05/04/2026 08:06:45 | 26.5  | 26.5  | 27.5  | 26.5  | 70.0  | 08:06 |
| 8972 | 05/04/2026 08:02:03 | 26.4  | 26.4  | 27.4  | 26.5  | 70.2  | 08:02 |
| 8971 | 05/04/2026 07:57:21 | 26.4  | 26.4  | 26.8  | 26.1  | 70.0  | 07:57 |
| 8970 | 05/04/2026 07:52:39 | 26.4  | 26.4  | 26.7  | 26.2  | 70.2  | 07:52 |
| 8969 | 05/04/2026 07:47:58 | 26.4  | 26.4  | 26.2  | 26.4  | 70.3  | 07:47 |
| 8968 | 05/04/2026 07:43:16 | 26.3  | 26.4  | 26.2  | 26.4  | 70.4  | 07:43 |
| 8967 | 05/04/2026 07:38:34 | 26.3  | 26.4  | 26.0  | 26.2  | 70.5  | 07:38 |
| 8966 | 05/04/2026 07:33:52 | 26.3  | 26.3  | 25.7  | 26.2  | 70.5  | 07:33 |
| 8965 | 05/04/2026 07:29:07 | 26.3  | 26.3  | 25.4  | 26.4  | 70.5  | 07:29 |
| 8964 | 05/04/2026 07:24:26 | 26.3  | 26.3  | 25.2  | 26.2  | 70.6  | 07:24 |
| 8963 | 05/04/2026 07:19:44 | 26.3  | 26.3  | 24.9  | 26.2  | 70.5  | 07:19 |
| 8962 | 05/04/2026 07:15:02 | 26.3  | 26.3  | 24.6  | 26.1  | 70.6  | 07:15 |
| 8961 | 05/04/2026 07:10:21 | 26.3  | 26.3  | 24.6  | 26.2  | 70.6  | 07:10 |